When you browse on this site, cookies collect data to enhance your experience and personalize the content and advertising you see.
Visit our Privacy Policy to learn more. By continuing to use the site, you agree to this use of cookies and data.
  • In Portugal
  • List of Countries
  • For 7 days
  • Water Temperature
  • Satellite Maps
  • Weather Map
  • Weather Widgets
  • user-avatar
    Login

    Hourly Weather Hasselt

    Today, 17 February, Sunday

    Time Temperature Precipitation Wind Pressure Humidity
    00:00 +6°C° 0 mm 2 mps 765 mmHg 80%
    01:00 +6°C° 0 mm 2 mps 765 mmHg 80%
    02:00 +6°C° 0 mm 2 mps 764 mmHg 80%
    03:00 +6°C° 0 mm 2 mps 764 mmHg 79%
    04:00 +6°C° 0 mm 2 mps 764 mmHg 80%
    05:00 +5°C° 0 mm 2 mps 764 mmHg 81%
    06:00 +5°C° 0 mm 2 mps 763 mmHg 82%
    07:00 +5°C° 0 mm 3 mps 763 mmHg 77%
    08:00 +8°C° 0 mm 3 mps 763 mmHg 71%
    09:00 +8°C° 0 mm 4 mps 763 mmHg 66%
    10:00 +10°C° 0 mm 4 mps 763 mmHg 61%
    11:00 +12°C° 0 mm 4 mps 762 mmHg 57%
    12:00 +14°C° 0 mm 4 mps 762 mmHg 52%
    13:00 +14°C° 0 mm 4 mps 762 mmHg 52%
    14:00 +14°C° 0 mm 4 mps 762 mmHg 52%
    15:00 +14°C° 0 mm 4 mps 761 mmHg 53%
    16:00 +13°C° 0 mm 4 mps 761 mmHg 57%
    17:00 +11°C° 0 mm 4 mps 761 mmHg 61%
    18:00 +8°C° 0 mm 4 mps 761 mmHg 65%
    19:00 +8°C° 0 mm 4 mps 761 mmHg 67%
    20:00 +8°C° 0 mm 3 mps 761 mmHg 68%
    21:00 +7°C° 0 mm 3 mps 761 mmHg 69%
    22:00 +7°C° 0 mm 3 mps 761 mmHg 71%
    23:00 +7°C° 0 mm 3 mps 761 mmHg 72%

    Tomorrow, 18 February, Monday

    Time Temperature Precipitation Wind Pressure Humidity
    00:00 +7°C° 0 mm 3 mps 761 mmHg 73%
    01:00 +5°C° 0 mm 3 mps 761 mmHg 74%
    02:00 +5°C° 0 mm 3 mps 761 mmHg 75%
    03:00 +5°C° 0 mm 3 mps 761 mmHg 75%
    04:00 +5°C° 0 mm 3 mps 761 mmHg 76%
    05:00 +5°C° 0 mm 3 mps 761 mmHg 76%
    06:00 +4°C° 0 mm 3 mps 761 mmHg 77%
    07:00 +5°C° 0 mm 3 mps 761 mmHg 73%
    08:00 +6°C° 0 mm 4 mps 761 mmHg 70%
    09:00 +7°C° 0 mm 4 mps 760 mmHg 67%
    10:00 +10°C° 0 mm 4 mps 760 mmHg 64%
    11:00 +11°C° 0 mm 4 mps 760 mmHg 62%
    12:00 +13°C° 0 mm 4 mps 760 mmHg 59%
    13:00 +13°C° 0 mm 4 mps 759 mmHg 60%
    14:00 +13°C° 0 mm 4 mps 759 mmHg 60%
    15:00 +13°C° 0 mm 4 mps 759 mmHg 60%
    16:00 +12°C° 0 mm 4 mps 759 mmHg 65%
    17:00 +10°C° 0 mm 4 mps 759 mmHg 70%
    18:00 +9°C° 0 mm 3 mps 759 mmHg 76%
    19:00 +8°C° 0 mm 4 mps 759 mmHg 77%
    20:00 +7°C° 0 mm 4 mps 759 mmHg 78%
    21:00 +7°C° 0 mm 4 mps 759 mmHg 79%
    22:00 +7°C° 0 mm 4 mps 759 mmHg 80%
    23:00 +7°C° 0 mm 4 mps 759 mmHg 81%

    Day after tomorrow, 19 February, Tuesday

    Time Temperature Precipitation Wind Pressure Humidity
    00:00 +7°C° 0 mm 3 mps 759 mmHg 82%
    01:00 +6°C° 0.5 mm 4 mps 759 mmHg 85%
    02:00 +6°C° 0.5 mm 4 mps 759 mmHg 89%
    03:00 +6°C° 0.5 mm 4 mps 759 mmHg 92%
    04:00 +6°C° 0.5 mm 4 mps 759 mmHg 92%
    05:00 +6°C° 0.5 mm 4 mps 759 mmHg 92%
    06:00 +6°C° 0.5 mm 4 mps 759 mmHg 92%
    07:00 +6°C° 0 mm 4 mps 760 mmHg 88%
    08:00 +7°C° 0 mm 4 mps 760 mmHg 84%
    09:00 +7°C° 0 mm 4 mps 761 mmHg 80%
    10:00 +8°C° 0 mm 5 mps 761 mmHg 75%
    11:00 +8°C° 0 mm 5 mps 761 mmHg 70%
    12:00 +9°C° 0 mm 5 mps 762 mmHg 64%
    13:00 +9°C° 0 mm 5 mps 762 mmHg 63%
    14:00 +9°C° 0 mm 5 mps 761 mmHg 63%
    15:00 +10°C° 0 mm 5 mps 761 mmHg 62%
    16:00 +10°C° 0.1 mm 4 mps 762 mmHg 67%
    17:00 +9°C° 0.1 mm 3 mps 762 mmHg 71%
    18:00 +8°C° 0.1 mm 2 mps 762 mmHg 76%
    19:00 +7°C° 0 mm 2 mps 763 mmHg 79%
    20:00 +7°C° 0 mm 2 mps 763 mmHg 81%
    21:00 +6°C° 0 mm 2 mps 763 mmHg 84%
    22:00 +5°C° 0 mm 3 mps 763 mmHg 84%
    23:00 +5°C° 0 mm 3 mps 763 mmHg 84%

    20 February, Wednesday

    Time Temperature Precipitation Wind Pressure Humidity
    00:00 +5°C° 0 mm 3 mps 763 mmHg 84%
    01:00 +5°C° 0 mm 3 mps 763 mmHg 85%
    02:00 +5°C° 0 mm 3 mps 763 mmHg 85%
    03:00 +5°C° 0 mm 3 mps 763 mmHg 85%
    04:00 +5°C° 0 mm 3 mps 764 mmHg 84%
    05:00 +5°C° 0 mm 3 mps 764 mmHg 83%
    06:00 +4°C° 0 mm 3 mps 764 mmHg 82%
    07:00 +5°C° 0 mm 3 mps 764 mmHg 79%
    08:00 +7°C° 0 mm 3 mps 764 mmHg 75%
    09:00 +6°C° 0 mm 4 mps 764 mmHg 72%
    10:00 +7°C° 0 mm 4 mps 764 mmHg 67%
    11:00 +10°C° 0 mm 4 mps 764 mmHg 63%
    12:00 +11°C° 0 mm 4 mps 764 mmHg 58%
    13:00 +11°C° 0 mm 4 mps 764 mmHg 57%
    14:00 +11°C° 0 mm 4 mps 764 mmHg 56%
    15:00 +11°C° 0 mm 4 mps 764 mmHg 56%
    16:00 +10°C° 0 mm 3 mps 764 mmHg 62%
    17:00 +9°C° 0 mm 3 mps 764 mmHg 69%
    18:00 +8°C° 0 mm 2 mps 764 mmHg 75%
    19:00 +8°C° 0 mm 2 mps 765 mmHg 78%
    20:00 +7°C° 0 mm 3 mps 765 mmHg 81%
    21:00 +7°C° 0 mm 3 mps 765 mmHg 84%
    22:00 +7°C° 0 mm 3 mps 765 mmHg 86%
    23:00 +7°C° 0 mm 3 mps 765 mmHg 88%

    21 February, Thursday

    Time Temperature Precipitation Wind Pressure Humidity
    00:00 +7°C° 0 mm 3 mps 765 mmHg 89%
    01:00 +5°C° 0 mm 3 mps 765 mmHg 90%
    02:00 +5°C° 0 mm 3 mps 765 mmHg 91%
    03:00 +5°C° 0 mm 3 mps 765 mmHg 91%
    04:00 +5°C° 0 mm 3 mps 766 mmHg 92%
    05:00 +5°C° 0 mm 3 mps 766 mmHg 93%
    06:00 +5°C° 0 mm 3 mps 766 mmHg 94%
    07:00 +5°C° 0 mm 3 mps 766 mmHg 90%
    08:00 +7°C° 0 mm 3 mps 767 mmHg 87%
    09:00 +8°C° 0 mm 3 mps 767 mmHg 84%
    10:00 +10°C° 0 mm 3 mps 767 mmHg 79%
    11:00 +11°C° 0 mm 4 mps 767 mmHg 74%
    12:00 +12°C° 0 mm 4 mps 767 mmHg 68%
    13:00 +13°C° 0 mm 4 mps 767 mmHg 67%
    14:00 +13°C° 0 mm 3 mps 767 mmHg 66%
    15:00 +13°C° 0 mm 3 mps 767 mmHg 65%
    16:00 +13°C° 0 mm 2 mps 767 mmHg 72%
    17:00 +10°C° 0 mm 2 mps 768 mmHg 78%
    18:00 +10°C° 0 mm 1 mps 768 mmHg 85%
    19:00 +9°C° 0 mm 1 mps 768 mmHg 87%
    20:00 +9°C° 0 mm 1 mps 769 mmHg 89%
    21:00 +9°C° 0 mm 1 mps 769 mmHg 90%
    22:00 +8°C° 0 mm 1 mps 769 mmHg 91%
    23:00 +8°C° 0 mm 1 mps 769 mmHg 92%

    22 February, Friday

    Time Temperature Precipitation Wind Pressure Humidity
    00:00 +7°C° 0 mm 2 mps 770 mmHg 92%
    01:00 +6°C° 0 mm 2 mps 770 mmHg 93%
    02:00 +7°C° 0 mm 1 mps 769 mmHg 93%
    03:00 +7°C° 0 mm 1 mps 769 mmHg 94%
    04:00 +7°C° 0 mm 1 mps 770 mmHg 94%
    05:00 +6°C° 0 mm 1 mps 770 mmHg 94%
    06:00 +6°C° 0 mm 1 mps 770 mmHg 94%
    07:00 +6°C° 0 mm 0 mps 770 mmHg 91%
    08:00 +7°C° 0 mm 0 mps 771 mmHg 87%
    09:00 +8°C° 0 mm 0 mps 771 mmHg 84%
    10:00 +10°C° 0 mm 0 mps 771 mmHg 79%
    11:00 +12°C° 0 mm 1 mps 771 mmHg 74%
    12:00 +13°C° 0 mm 1 mps 771 mmHg 70%
    13:00 +14°C° 0 mm 1 mps 771 mmHg 70%
    14:00 +14°C° 0 mm 2 mps 771 mmHg 71%
    15:00 +14°C° 0 mm 2 mps 771 mmHg 72%
    16:00 +13°C° 0 mm 2 mps 771 mmHg 76%
    17:00 +12°C° 0 mm 2 mps 771 mmHg 79%
    18:00 +10°C° 0 mm 2 mps 772 mmHg 83%
    19:00 +10°C° 0 mm 2 mps 772 mmHg 82%
    20:00 +10°C° 0 mm 2 mps 772 mmHg 81%
    21:00 +9°C° 0 mm 2 mps 773 mmHg 80%
    22:00 +8°C° 0 mm 2 mps 773 mmHg 83%
    23:00 +7°C° 0 mm 3 mps 773 mmHg 85%
    Show more